Location: Cauls Bottom
(18.2167°N, 63.0333°W)
Time: 23:41:10
(UTC+00:00)

Daily predictions for brighter satellites

Satellite Brightness Start Highest point End
(mag) Time Altitude Azimuth Time Altitude Azimuth Time Altitude Azimuth
USA 234 3.5 22:20:01 10° NE 22:26:22 53° SE 22:32:42 10° SSW
Cosmos 1066 Rocket 4.1 22:23:25 10° N 22:28:47 80° E 22:34:15 10° S
MOS 1 Rocket 4.2 22:27:34 10° NE 22:30:58 23° E 22:34:21 10° SSE
Cosmos 1674 Rocket 3.6 22:29:26 10° N 22:33:52 65° E 22:38:16 10° SSE
H-2A R/B 3.6 22:32:50 10° E 22:35:10 13° ENE 22:37:30 10° NE
ISS -0.7 22:37:14 10° WNW 22:38:59 14° NW 22:40:45 10° NNW
Iridium 4 Rocket 3.3 22:34:42 10° SSE 22:39:07 58° E 22:43:56 10° N
ATLAS 2AS CENTAUR R/B 4.2 22:42:05 10° SE 22:46:29 16° ESE 22:50:58 10° ENE
SL-24 R/B 4.0 22:42:48 10° SSE 22:47:06 78° ENE 22:51:25 10° N
IRS-1C Rocket 4.2 22:43:14 10° S 22:48:29 81° WSW 22:53:44 10° NNW
Delta 168 3.3 22:44:31 10° WNW 22:48:52 46° N 22:51:33 15° E
Intelsat 5-3 Rocket 3.1 22:46:32 10° WNW 22:50:12 84° SSW 22:58:07 13° ESE
Cosmos 1939 Rocket 3.0 22:48:08 10° S 22:52:11 80° W 22:56:17 10° NNW
Helios 1A Rocket 3.0 22:48:52 10° S 22:52:54 80° WSW 22:57:00 10° NNW
Cosmos 2263 Rocket 4.0 22:48:03 10° SW 22:53:03 34° WNW 22:58:04 10° N
GOES 2 Rocket 3.8 22:49:22 10° W 22:53:24 44° NNW 22:57:32 10° NE
Okean 2 Rocket 4.1 22:49:51 10° SSE 22:53:35 26° E 22:57:18 10° NE
GPS 2-04 Rocket1 4.0 22:51:28 10° NW 22:55:05 28° NNE 22:57:34 16° ENE
CZ-2C R/B 3.7 22:51:55 10° NE 22:56:25 25° E 23:00:56 10° SSE
Okean-O 2.5 22:53:06 10° SSE 22:57:30 78° ENE 23:01:56 10° N
SL-16 R/B 2.6 22:52:21 10° NNW 22:57:58 68° WSW 23:03:33 10° S
CZ-2C R/B 3.5 22:54:33 10° SE 22:59:07 38° ENE 23:03:56 10° N
CZ-2D R/B 3.2 22:55:30 10° S 22:59:22 88° WSW 23:03:15 10° NNW
Cosmos 1844 Rocket 3.1 22:55:15 10° S 23:00:16 36° ESE 23:05:18 10° NE
Cosmos 1437 4.3 22:59:21 10° NNE 23:00:40 17° ENE 23:00:40 17° ENE
Cosmos 1378 Rocket 3.9 22:58:26 10° NNW 23:02:41 66° W 23:06:57 10° S
HJ-1C 4.4 23:03:14 23° E 23:03:35 24° ENE 23:06:15 10° NNE
Cosmos 1300 Rocket 4.1 23:01:59 10° SSE 23:05:57 35° E 23:09:57 10° NNE
GPS 2-17 Rocket1 3.8 23:01:37 10° SW 23:05:57 39° SSE 23:08:25 22° ESE
Cosmos 1464 Rocket 4.0 23:05:30 10° SSE 23:11:24 53° E 23:17:19 10° NNE
YAOGAN 1 2.4 23:07:34 10° SSE 23:11:53 82° ENE 23:16:12 10° N
SEDSat Delta rocket 4.1 23:07:08 10° NW 23:11:57 36° NNE 23:14:11 23° ENE
Intelsat 5-1 Rocket 4.4 22:49:32 10° WSW 23:13:05 57° SSE 23:18:29 23° E
Cosmos 923 Rocket 3.9 23:08:51 10° NNW 23:14:02 89° ENE 23:19:14 10° SSE
Meteor 1-12 Rocket 4.3 23:09:23 10° S 23:15:17 62° E 23:21:06 10° NNE
Cosmos 2298 Rocket 3.9 23:11:30 10° S 23:16:46 66° ESE 23:22:02 10° NNE
ASTRO E2 3.4 23:14:10 10° WNW 23:18:00 47° SSW 23:20:01 24° SSE
CSL-04 Debris 4.1 23:15:24 10° SSE 23:20:44 65° ENE 23:26:03 10° N
Cosmos 1943 3.8 23:18:44 10° N 23:23:48 33° ENE 23:24:50 31° E
Cosmos 1932 4.4 23:22:25 10° NNW 23:28:46 87° ENE 23:34:16 14° SSE
CSL-04 Rocket 3.5 23:24:50 10° SSE 23:30:09 78° ENE 23:35:34 10° N
Okean 2 3.7 23:26:27 10° N 23:30:34 68° W 23:34:40 10° S
CZ-4 R/B 2.8 23:26:43 10° S 23:30:40 40° W 23:34:38 10° NNW
Cosmos 2151 Rocket 3.5 23:30:26 10° S 23:34:46 61° E 23:39:08 10° NNE
Meteor 1-21 4.1 23:30:54 10° N 23:36:29 84° E 23:42:05 10° S
OAO 3 Copernicus 4.3 23:33:49 10° WNW 23:38:51 74° SSW 23:40:16 47° SE
Palapa B4 Rocket 4.5 23:35:47 10° W 23:42:05 84° N 23:46:36 35° E
Cosmos 1603 3.6 23:37:51 10° N 23:43:26 67° ENE 23:44:57 47° SE
Cosmos 2150 Rocket 4.4 23:41:35 10° SSW 23:46:47 63° WNW 23:52:06 10° N
